{"data":{"norad_id":61216,"intl_designator":"2024-171S","name":"STARLINK-32425","alt_names":[],"object_type":"PAYLOAD","status":"ACTIVE","operator":null,"country":"US","launch_date":"2024-09-20","launch_site_code":"AFWTR","launch_vehicle":null,"mission":null,"orbit_class":"UNKNOWN","rcs_meters":null,"size_class":null,"mass_kg":null,"dimensions":null,"purposes":["comms"],"wikipedia_slug":null,"has_3d_model":false,"image_url":null,"decayed_at":null,"tle_current":{"epoch":"2026-05-24T21:20:53.892096Z","epoch_age_seconds":78543,"freshness":"FRESH","line1":"1 61216U 24171S   26144.88951264  .00018005  00000+0  61625-3 0  9997","line2":"2 61216  53.1604 328.6035 0000757  58.3001 301.8073 15.30321766 94032","mean_motion":15.30321766,"eccentricity":7.57e-5,"inclination_deg":53.1604,"raan_deg":328.6035,"arg_perigee_deg":58.3001,"mean_anomaly_deg":301.8073,"bstar":0.00061625,"rev_number":9403,"period_min":94.097857848805,"perigee_km":474.33275096835,"apogee_km":475.37029343061,"semimajor_km":6852.9885221995,"source":"CELESTRAK","updated_at":"2026-05-25T13:38:19.362193Z"}}}